Location: Asheville, NC
(35.6000°N, 82.5500°W)
Time: 01:33:49
(UTC-04:00)

AO-7 - Pass Details

Date: 04 January 2018
Orbit: 1440 x 1458 km, 101.7° (Epoch: 20 July)

Event Time Altitude Azimuth Distance (km) Brightness Sun altitude
Rises 05:18:42 0° 8° (N) 4,569 ? -28.1°
Reaches altitude 10° 05:21:43 10° 1° (N) 3,588 ? -27.4°
Enters shadow 05:27:01 33° 327° (NNW) 2,267 ? -26.4°
